Regional Weather Roundup
Issued by NWS

Home | Current Version | Previous Version | Text Only | Print | Product List | Glossary Off
Versions: 1 2 3 4 5 6 7 8 9 10 11 12 13 14 15 16 17 18 19 20 21 22 23 24 25 26 27

000
ASUS45 KCYS 040910
RWRWY

WYOMING REGIONAL WEATHER ROUNDUP
NATIONAL WEATHER SERVICE CHEYENNE WY
200 AM MST SUN DEC 04 2016

NOTE:  "FAIR" INDICATES FEW OR NO CLOUDS BELOW 12,000 FEET
WITH NO SIGNIFICANT WEATHER AND/OR OBSTRUCTIONS TO VISIBILITY.

WYZ001-041000-
YELLOWSTONE NATIONAL PARK

CITY           SKY/WX    TMP DP  RH WIND       PRES   REMARKS
LK YELLOWSTONE   N/A     19  17  92 VRB6G18   30.00R WCI  11
W YELLOWSTONE  NOT AVBL

$$
WYZ002>013-054>058-071-098>099-041000-
NORTHERN WYOMING

CITY           SKY/WX    TMP DP  RH WIND       PRES   REMARKS
JACKSON        CLOUDY    27  23  86 S15G31    30.03F WCI  15
CODY           FAIR      35  14  42 W10G22    29.92F WCI  27
GREYBULL       CLOUDY    24  16  71 S5        29.96F WCI  18
WORLAND        FAIR      19  14  81 S3        29.96F
SHERIDAN       CLOUDY    31  17  56 W6        29.92S WCI  25
BUFFALO        FAIR      28   8  43 CALM      29.91F
GILLETTE       CLOUDY    28  22  78 SW9       29.93F WCI  19
HULETT         CLOUDY    32  21  64 SW9       29.92R WCI  24
NEWCASTLE      FAIR      25  19  80 CALM      29.95R

$$
WYZ014>020-022>026-101>103-041000-
CENTRAL WYOMING

CITY           SKY/WX    TMP DP  RH WIND       PRES   REMARKS
BIG PINEY      MOCLDY    10   7  87 CALM      30.07F
PINEDALE       FLURRIES   9   9 100 SE3       30.07F
DUBOIS         FAIR      23  12  63 NW26G35   29.91F WCI   6
LANDER         FAIR      19   8  62 S3        29.97F
RIVERTON       CLOUDY    24  11  57 SW9       29.97F WCI  14
CASPER         FAIR      22  12  65 SW16      29.98S WCI   8
DOUGLAS        FAIR      14   8  77 CALM      29.99S

$$
WYZ021-027>030-104>119-041000-
SOUTHERN WYOMING

CITY           SKY/WX    TMP DP  RH WIND       PRES   REMARKS
EVANSTON       FAIR      20  13  74 SW14      30.14F WCI   7
FORT BRIDGER   FAIR      23  16  74 W15G21    30.15F WCI  10
ROCK SPRINGS   FAIR      23  15  71 W26G33    30.10F WCI   6
DIXON          CLOUDY    24  15  68 SW6       30.18S WCI  16
RAWLINS        FAIR      19  12  74 W22G30    30.05F WCI   2
SARATOGA       FAIR      21  14  73 SW14G22   30.09S WCI   8
LARAMIE        NOT AVBL
CHEYENNE       FAIR      23   9  55 N5        30.00R WCI  17
TORRINGTON     FAIR      29  14  53 W13       29.99F WCI  19
PINE BLUFFS    FAIR      21  12  68 W8        30.02R WCI  12

$$




USA.gov is the U.S. government's official web portal to all federal, state and local government web resources and services.